| time (UTC) | temp F | wind direction | speed MPH | gust MPH | rain 1hr in | rain 24hr in | rain mn in | humidity % | barometer mb |
| 20260510131555 | 55 | 314 | 2.0 | 9.0 | 0.00 | 0.00 | 0.00 | 51 | 1006.9 |
| 20260510130053 | 55 | 2 | 6.0 | 13.0 | 0.00 | 0.00 | 0.00 | 49 | 1007.1 |
| 20260510124559 | 56 | 307 | 4.0 | 12.0 | 0.00 | 0.00 | 0.00 | 47 | 1007.2 |
| 20260510123053 | 57 | 338 | 6.0 | 14.0 | 0.00 | 0.00 | 0.00 | 45 | 1007.5 |
| 20260510121548 | 58 | 296 | 4.0 | 15.0 | 0.00 | 0.00 | 0.00 | 44 | 1007.6 |
| 20260510120046 | 58 | 309 | 4.0 | 12.0 | 0.00 | 0.00 | 0.00 | 46 | 1007.8 |
| 20260510114544 | 57 | 357 | 6.0 | 15.0 | 0.00 | 0.00 | 0.00 | 42 | 1008.3 |
| 20260510113042 | 58 | 293 | 6.0 | 16.0 | 0.00 | 0.00 | 0.00 | 39 | 1008.5 |
| 20260510111540 | 59 | 342 | 6.0 | 14.0 | 0.00 | 0.00 | 0.00 | 38 | 1008.7 |
| 20260510110037 | 58 | 335 | 4.0 | 14.0 | 0.00 | 0.00 | 0.00 | 42 | 1008.9 |
| 20260510104536 | 58 | 327 | 4.0 | 12.0 | 0.00 | 0.00 | 0.00 | 41 | 1009.1 |
| 20260510103033 | 59 | 19 | 6.0 | 13.0 | 0.00 | 0.00 | 0.00 | 39 | 1009.4 |
| 20260510101531 | 58 | 342 | 5.0 | 12.0 | 0.00 | 0.00 | 0.00 | 39 | 1009.5 |
| 20260510100028 | 58 | 302 | 3.0 | 11.0 | 0.00 | 0.00 | 0.00 | 38 | 1009.8 |
| 20260510094537 | 59 | 158 | 4.0 | 12.0 | 0.00 | 0.00 | 0.00 | 38 | 1010.0 |
| 20260510093024 | 58 | 321 | 2.0 | 9.0 | 0.00 | 0.00 | 0.00 | 39 | 1010.2 |
| 20260510091523 | 58 | 333 | 5.0 | 10.0 | 0.00 | 0.00 | 0.00 | 39 | 1010.3 |
| 20260510090022 | 58 | 320 | 1.0 | 9.0 | 0.00 | 0.00 | 0.00 | 38 | 1010.4 |
| 20260510084516 | 57 | 325 | 0.0 | 8.0 | 0.00 | 0.00 | 0.00 | 41 | 1010.7 |
| 20260510083015 | 57 | 290 | 2.0 | 8.0 | 0.00 | 0.00 | 0.00 | 38 | 1010.9 |
| 20260510081526 | 56 | 28 | 3.0 | 8.0 | 0.00 | 0.00 | 0.00 | 40 | 1011.0 |
| 20260510080007 | 56 | 32 | 1.0 | 8.0 | 0.00 | 0.00 | 0.00 | 40 | 1011.3 |
| 20260510074505 | 55 | 12 | 0.0 | 10.0 | 0.00 | 0.00 | 0.00 | 48 | 1011.4 |
| 20260510073001 | 54 | 324 | 2.0 | 8.0 | 0.00 | 0.00 | 0.00 | 56 | 1011.7 |
| 20260510071601 | 54 | 326 | 3.0 | 8.0 | 0.00 | 0.00 | 0.00 | 57 | 1011.9 |
| 20260510070058 | 53 | 55 | 0.0 | 6.0 | 0.00 | 0.00 | 0.00 | 61 | 1011.9 |
| 20260510064554 | 53 | 69 | 2.0 | 7.0 | 0.00 | 0.00 | 0.00 | 59 | 1012.2 |
| 20260510063051 | 52 | 63 | 0.0 | 6.0 | 0.00 | 0.00 | 0.00 | 62 | 1012.4 |
| 20260510061557 | 51 | 23 | 1.0 | 8.0 | 0.00 | 0.00 | 0.00 | 67 | 1012.5 |
| 20260510060046 | 50 | 321 | 1.0 | 6.0 | 0.00 | 0.00 | 0.00 | 70 | 1012.5 |
| 20260510054556 | 49 | 356 | 3.0 | 7.0 | 0.00 | 0.00 | 0.00 | 72 | 1012.6 |
| 20260510053041 | 48 | 345 | 1.0 | 5.0 | 0.00 | 0.00 | 0.00 | 78 | 1012.7 |
| 20260510051535 | 45 | 318 | 2.0 | 5.0 | 0.00 | 0.00 | 0.00 | 79 | 1012.9 |
| 20260510050032 | 45 | 19 | 1.0 | 4.0 | 0.00 | 0.00 | 0.00 | 78 | 1012.9 |
| 20260510044535 | 44 | 351 | 0.0 | 4.0 | 0.00 | 0.00 | 0.00 | 80 | 1013.1 |
| 20260510043027 | 41 | 343 | 0.0 | 2.0 | 0.00 | 0.00 | 0.00 | 84 | 1013.2 |
| 20260510041525 | 38 | 11 | 0.0 | 0.0 | 0.00 | 0.00 | 0.00 | 88 | 1013.3 |
| 20260510040025 | 35 | 11 | 0.0 | 1.0 | 0.00 | 0.00 | 0.00 | 91 | 1013.5 |
| 20260510034522 | 35 | 299 | 0.0 | 0.0 | 0.00 | 0.00 | 0.00 | 90 | 1013.5 |
| 20260510033020 | 34 | 299 | 0.0 | 0.0 | 0.00 | 0.00 | 0.00 | 92 | 1013.7 |
| 20260510031521 | 34 | 299 | 0.0 | 0.0 | 0.00 | 0.00 | 0.00 | 92 | 1013.8 |
| 20260510030018 | 33 | 299 | 0.0 | 0.0 | 0.00 | 0.00 | 0.00 | 90 | 1013.9 |
| 20260510024516 | 34 | 299 | 0.0 | 0.0 | 0.00 | 0.00 | 0.00 | 89 | 1014.0 |
| 20260510023014 | 35 | 299 | 0.0 | 0.0 | 0.00 | 0.00 | 0.00 | 88 | 1014.3 |
| 20260510021514 | 35 | 299 | 0.0 | 0.0 | 0.00 | 0.00 | 0.00 | 89 | 1014.6 |
| 20260510020009 | 35 | 299 | 0.0 | 1.0 | 0.00 | 0.00 | 0.00 | 90 | 1014.8 |
| 20260510014510 | 35 | 297 | 0.0 | 1.0 | 0.00 | 0.00 | 0.00 | 91 | 1014.8 |
| 20260510013005 | 34 | 298 | 0.0 | 0.0 | 0.00 | 0.00 | 0.00 | 89 | 1014.9 |
| 20260510011505 | 35 | 297 | 0.0 | 0.0 | 0.00 | 0.00 | 0.00 | 88 | 1015.0 |
| 20260510010101 | 35 | 297 | 0.0 | 0.0 | 0.00 | 0.00 | 0.00 | 88 | 1015.2 |
| 20260510004604 | 36 | 297 | 0.0 | 0.0 | 0.00 | 0.00 | 0.00 | 88 | 1015.4 |
| 20260510003056 | 36 | 297 | 0.0 | 0.0 | 0.00 | 0.00 | 0.00 | 86 | 1015.5 |
| 20260510001553 | 36 | 297 | 0.0 | 0.0 | 0.00 | 0.00 | 0.00 | 85 | 1015.7 |
| 20260510000049 | 36 | 297 | 0.0 | 0.0 | 0.00 | 0.00 | 0.00 | 85 | 1015.9 |
| 20260509234546 | 37 | 297 | 0.0 | 1.0 | 0.00 | 0.00 | 0.00 | 82 | 1016.2 |
| 20260509233046 | 38 | 297 | 0.0 | 0.0 | 0.00 | 0.00 | 0.00 | 81 | 1016.4 |
| 20260509231541 | 40 | 297 | 0.0 | 0.0 | 0.00 | 0.00 | 0.00 | 79 | 1016.6 |
| 20260509230035 | 41 | 297 | 0.0 | 1.0 | 0.00 | 0.00 | 0.00 | 75 | 1016.8 |
| 20260509224534 | 42 | 297 | 0.0 | 1.0 | 0.00 | 0.00 | 0.00 | 75 | 1016.9 |
| 20260509223028 | 43 | 297 | 0.0 | 0.0 | 0.00 | 0.00 | 0.00 | 73 | 1017.2 |
| 20260509221532 | 43 | 297 | 0.0 | 3.0 | 0.00 | 0.00 | 0.00 | 74 | 1017.4 |
| 20260509220024 | 43 | 333 | 0.0 | 3.0 | 0.00 | 0.00 | 0.00 | 73 | 1017.6 |
| 20260509214522 | 44 | 353 | 0.0 | 1.0 | 0.00 | 0.00 | 0.00 | 71 | 1017.6 |
| 20260509213021 | 44 | 335 | 0.0 | 2.0 | 0.00 | 0.00 | 0.00 | 68 | 1017.8 |
| 20260509211521 | 45 | 351 | 0.0 | 3.0 | 0.00 | 0.00 | 0.00 | 67 | 1017.9 |
| 20260509210020 | 45 | 360 | 0.0 | 4.0 | 0.00 | 0.00 | 0.00 | 66 | 1018.0 |
| 20260509204519 | 45 | 293 | 0.0 | 2.0 | 0.00 | 0.00 | 0.00 | 65 | 1017.9 |
| 20260509203019 | 46 | 293 | 0.0 | 3.0 | 0.00 | 0.00 | 0.00 | 62 | 1017.9 |
| 20260509201525 | 46 | 293 | 0.0 | 2.0 | 0.00 | 0.00 | 0.00 | 59 | 1018.0 |
| 20260509200018 | 47 | 293 | 0.0 | 0.0 | 0.00 | 0.00 | 0.00 | 55 | 1018.2 |
| 20260509194517 | 48 | 293 | 0.0 | 2.0 | 0.00 | 0.00 | 0.00 | 52 | 1018.1 |
| 20260509193017 | 50 | 293 | 0.0 | 2.0 | 0.00 | 0.00 | 0.00 | 49 | 1018.1 |
| 20260509191518 | 52 | 23 | 0.0 | 2.0 | 0.00 | 0.00 | 0.00 | 45 | 1018.1 |
| 20260509190017 | 53 | 333 | 0.0 | 3.0 | 0.00 | 0.00 | 0.00 | 42 | 1018.1 |
| 20260509184517 | 54 | 333 | 1.0 | 4.0 | 0.00 | 0.00 | 0.00 | 40 | 1018.0 |
| 20260509183016 | 55 | 281 | 3.0 | 8.0 | 0.00 | 0.00 | 0.00 | 38 | 1017.9 |
| 20260509181515 | 56 | 320 | 3.0 | 8.0 | 0.00 | 0.00 | 0.00 | 36 | 1017.9 |
| 20260509180014 | 57 | 327 | 1.0 | 9.0 | 0.00 | 0.00 | 0.00 | 33 | 1017.8 |
| 20260509174513 | 59 | 276 | 2.0 | 7.0 | 0.00 | 0.00 | 0.00 | 31 | 1017.8 |
| 20260509173037 | 60 | 336 | 4.0 | 8.0 | 0.00 | 0.00 | 0.00 | 31 | 1017.9 |
| 20260509171521 | 61 | 39 | 1.0 | 7.0 | 0.00 | 0.00 | 0.00 | 30 | 1018.0 |
| 20260509170014 | 63 | 72 | 0.0 | 4.0 | 0.00 | 0.00 | 0.00 | 24 | 1018.1 |
| 20260509164508 | 62 | 65 | 0.0 | 3.0 | 0.00 | 0.00 | 0.00 | 21 | 1018.2 |
| 20260509163013 | 62 | 44 | 3.0 | 6.0 | 0.00 | 0.00 | 0.00 | 21 | 1018.3 |
| 20260509161507 | 62 | 66 | 0.0 | 5.0 | 0.00 | 0.00 | 0.00 | 23 | 1018.5 |
| 20260509160006 | 62 | 64 | 0.0 | 5.0 | 0.00 | 0.00 | 0.00 | 20 | 1018.7 |
| 20260509154502 | 62 | 77 | 2.0 | 6.0 | 0.00 | 0.00 | 0.00 | 18 | 1018.8 |
| 20260509153101 | 62 | 33 | 4.0 | 8.0 | 0.00 | 0.00 | 0.00 | 18 | 1018.9 |
| 20260509151621 | 62 | 92 | 2.0 | 8.0 | 0.00 | 0.00 | 0.00 | 19 | 1019.1 |
| 20260509150057 | 62 | 34 | 2.0 | 9.0 | 0.00 | 0.00 | 0.00 | 20 | 1019.3 |
| 20260509144555 | 62 | 51 | 2.0 | 8.0 | 0.00 | 0.00 | 0.00 | 23 | 1019.3 |
| 20260509143104 | 62 | 335 | 1.0 | 10.0 | 0.00 | 0.00 | 0.00 | 26 | 1019.6 |
| 20260509141553 | 62 | 37 | 4.0 | 11.0 | 0.00 | 0.00 | 0.00 | 24 | 1019.7 |
| 20260509140050 | 62 | 329 | 3.0 | 9.0 | 0.00 | 0.00 | 0.00 | 26 | 1019.9 |
| 20260509134549 | 61 | 331 | 3.0 | 12.0 | 0.00 | 0.00 | 0.00 | 25 | 1020.0 |
| 20260509133046 | 62 | 46 | 1.0 | 12.0 | 0.00 | 0.00 | 0.00 | 23 | 1020.4 |